Tracking 29892 objects as of 21-Nov-2024
HD Live streaming from Space Station
objects crossing your sky now

NOAA 16 DEB

Track NOAA 16 DEB now!
10-day predictions


NORAD ID: 41165
Int'l Code: 2000-055CY
Perigee: 809.7 km
Apogee: 842.0 km
Inclination: 98.7 °
Period: 101.3 minutes
Semi major axis: 7196 km
RCS: Unknown
Launch date: September 21, 2000
Source: United States (US)
Launch site: AIR FORCE WESTERN TEST RANGE (AFWTR)

Note: This is SATELLITE DEBRIS
Your satellite tracking list
Your tracking list is empty




NASA's NSSDC Master Catalog

Two Line Element Set (TLE):
1 41165U 00055CY  24322.31492799  .00005359  00000-0  24391-2 0  9997
2 41165  98.6532 347.5747 0022397 299.5526  60.3419 14.21961351461636
Source of the keplerian elements: AFSPC